TimePST,TemperatureF,Dew PointF,Humidity,Sea Level PressureIn,VisibilityMPH,Wind Direction,Wind SpeedMPH,Gust SpeedMPH,PrecipitationIn,Events,Conditions,WindDirDegrees,DateUTC
12:01 AM,24.8,17.6,74,29.97,10.0,South,3.5,-,N/A,,Mostly Cloudy,180,2013-02-09 08:01:00
12:53 AM,25.0,17.1,72,30.04,10.0,WSW,6.9,-,N/A,,Mostly Cloudy,250,2013-02-09 08:53:00
1:11 AM,24.8,15.8,69,29.98,10.0,WSW,9.2,-,N/A,,Scattered Clouds,240,2013-02-09 09:11:00
1:53 AM,21.0,15.1,78,30.05,10.0,SW,8.1,-,N/A,,Clear,230,2013-02-09 09:53:00
2:53 AM,19.0,14.0,81,30.05,10.0,SW,8.1,-,N/A,,Clear,220,2013-02-09 10:53:00
3:53 AM,19.0,14.0,81,30.05,10.0,WSW,8.1,-,N/A,,Clear,240,2013-02-09 11:53:00
4:53 AM,19.9,15.1,81,30.06,10.0,WSW,8.1,-,N/A,,Clear,250,2013-02-09 12:53:00
5:53 AM,18.0,12.9,81,30.07,10.0,WSW,4.6,-,N/A,,Clear,250,2013-02-09 13:53:00
6:53 AM,19.9,15.1,81,30.06,10.0,West,8.1,-,N/A,,Clear,280,2013-02-09 14:53:00
7:53 AM,25.0,17.1,72,30.08,10.0,West,5.8,-,N/A,,Clear,260,2013-02-09 15:53:00
8:53 AM,30.0,19.9,66,30.07,10.0,WSW,6.9,-,N/A,,Clear,240,2013-02-09 16:53:00
9:53 AM,30.9,19.0,61,30.06,10.0,West,13.8,-,N/A,,Clear,270,2013-02-09 17:53:00
10:53 AM,34.0,19.9,56,30.07,10.0,WSW,11.5,-,N/A,,Clear,250,2013-02-09 18:53:00
11:53 AM,37.0,21.0,52,30.06,10.0,NW,15.0,18.4,N/A,,Clear,320,2013-02-09 19:53:00
12:53 PM,36.0,21.9,57,30.06,10.0,NW,13.8,-,N/A,,Clear,310,2013-02-09 20:53:00
1:53 PM,36.0,21.9,57,30.05,10.0,West,18.4,24.2,N/A,,Clear,280,2013-02-09 21:53:00
2:53 PM,37.0,23.0,57,30.06,10.0,WNW,17.3,25.3,N/A,,Clear,290,2013-02-09 22:53:00
3:53 PM,37.0,23.0,57,30.08,10.0,West,11.5,-,N/A,,Scattered Clouds,270,2013-02-09 23:53:00
4:53 PM,34.0,23.0,64,30.08,10.0,West,8.1,-,N/A,,Partly Cloudy,260,2013-02-10 00:53:00
5:53 PM,33.1,23.0,66,30.10,10.0,WNW,13.8,19.6,N/A,,Clear,290,2013-02-10 01:53:00
6:53 PM,32.0,21.9,66,30.12,10.0,WNW,9.2,-,N/A,,Clear,290,2013-02-10 02:53:00
7:53 PM,28.0,21.9,78,30.12,10.0,WSW,4.6,-,N/A,,Overcast,250,2013-02-10 03:53:00
8:53 PM,25.0,21.0,85,30.13,10.0,Calm,Calm,-,N/A,,Scattered Clouds,0,2013-02-10 04:53:00
9:53 PM,28.0,23.0,81,30.12,10.0,SSW,4.6,-,N/A,,Overcast,210,2013-02-10 05:53:00
10:53 PM,30.0,24.1,79,30.13,10.0,West,3.5,-,N/A,,Overcast,280,2013-02-10 06:53:00
11:53 PM,30.0,25.0,82,30.12,10.0,SW,4.6,-,N/A,,Overcast,230,2013-02-10 07:53:00